Weather History for Tucson, AZ

Change the Weather History Date:

Monday, November 4, 2013

  Actual Average Record
Temperature  
Mean Temperature 66 °F 64 °F  
Max Temperature 80 °F 78 °F 91 °F (2001)
Min Temperature 52 °F 50 °F 29 °F (1956)
Degree Days  
Heating Degree Days 0 3  
Month to date heating degree days 3 11  
Since 1 July heating degree days 16 35  
Cooling Degree Days 1 2  
Month to date cooling degree days 7 10  
Year to date cooling degree days 3611 3129  
Growing Degree Days 16 (Base 50)    
Moisture  
Dew Point 43 °F    
Average Humidity 46    
Maximum Humidity 66    
Minimum Humidity 25    
Precipitation  
Precipitation 0.00 in 0.02 in 0.41 in (2000)
Month to date precipitation 0.12 0.08  
Year to date precipitation 5.60 10.17  
Snow  
Snow 0.00 in 0.00 in 0.00 in (2002)
Month to date snowfall 0.0 0.0  
Since 1 July snowfall 0.0 0.0  
Snow Depth 0.00 in    
Sea Level Pressure  
Sea Level Pressure 29.73 in    
Wind  
Wind Speed 9 mph (South)    
Max Wind Speed 21 mph    
Max Gust Speed 30 mph    
Visibility 10 miles    
Events      
T = Trace of Precipitation, MM = Missing Value Source: NWS Daily Summary

Daily Weather History Graph

Daily Weather History Graph

Search for Another Location

Airport:

Trip Planner

Search our weather history database for the weather conditions in past years. The results will help you decide how hot, cold, wet, or windy it might be!

Date:

Astronomy

Nov. 04, 2013 Rise Set
Actual Time 6:43 AM MST 5:30 PM MST
Civil Twilight 6:17 AM MST 5:56 PM MST
Nautical Twilight 5:48 AM MST 6:25 PM MST
Astronomical Twilight 5:20 AM MST 6:54 PM MST
Moon 7:54 AM MST (11/4) 6:43 PM MST (11/4)
Length of Visible Light 11h 38m
Length of Day
10h 47m
New Moon, 2% of the Moon is Illuminated
Nov 4
New Moon
Nov 9
First Quarter
Nov 17
Full
Nov 25
Last Quarter
Dec 2
New

Hourly Weather History & Observations

Time (MST) Temp. Dew Point Humidity Pressure Visibility Wind Dir Wind Speed Gust Speed Precip Events Conditions
12:53 AM 57.9 °F 42.1 °F 56% 29.75 in 10.0 mi SSE 5.8 mph - N/A   Clear
1:53 AM 55.9 °F 43.0 °F 62% 29.75 in 10.0 mi SSE 4.6 mph - N/A   Clear
2:53 AM 55.9 °F 42.1 °F 60% 29.74 in 10.0 mi SE 11.5 mph - N/A   Clear
3:53 AM 57.0 °F 42.1 °F 57% 29.74 in 10.0 mi SE 13.8 mph - N/A   Clear
4:53 AM 54.0 °F 42.1 °F 64% 29.75 in 10.0 mi SE 9.2 mph - N/A   Clear
5:53 AM 54.0 °F 41.0 °F 62% 29.76 in 10.0 mi SE 6.9 mph - N/A   Clear
6:53 AM 53.1 °F 42.1 °F 66% 29.78 in 10.0 mi SE 9.2 mph - N/A   Clear
7:53 AM 57.0 °F 43.0 °F 59% 29.80 in 10.0 mi SE 3.5 mph - N/A   Clear
8:53 AM 64.9 °F 44.1 °F 47% 29.80 in 10.0 mi SE 5.8 mph - N/A   Clear
9:53 AM 70.0 °F 44.1 °F 39% 29.78 in 10.0 mi SE 5.8 mph - N/A   Clear
10:53 AM 72.0 °F 43.0 °F 35% 29.77 in 10.0 mi SSE 8.1 mph - N/A   Clear
11:53 AM 75.9 °F 42.1 °F 30% 29.73 in 10.0 mi South 13.8 mph 19.6 mph N/A   Clear
12:53 PM 78.1 °F 39.9 °F 25% 29.69 in 10.0 mi SSW 9.2 mph 18.4 mph N/A   Clear
1:53 PM 78.1 °F 41.0 °F 27% 29.66 in 10.0 mi South 13.8 mph - N/A   Partly Cloudy
2:53 PM 79.0 °F 39.9 °F 25% 29.65 in 10.0 mi SSW 15.0 mph - N/A   Scattered Clouds
3:53 PM 79.0 °F 41.0 °F 26% 29.65 in 10.0 mi SSW 16.1 mph 29.9 mph N/A   Partly Cloudy
4:53 PM 75.9 °F 43.0 °F 31% 29.66 in 10.0 mi SSW 11.5 mph - N/A   Partly Cloudy
5:53 PM 73.0 °F 43.0 °F 34% 29.67 in 10.0 mi SW 9.2 mph - N/A   Scattered Clouds
6:53 PM 71.1 °F 44.1 °F 38% 29.71 in 10.0 mi WSW 4.6 mph - N/A   Mostly Cloudy
7:53 PM 68.0 °F 48.9 °F 50% 29.72 in 10.0 mi West 10.4 mph - N/A   Partly Cloudy
8:53 PM 66.0 °F 50.0 °F 56% 29.74 in 10.0 mi West 5.8 mph - N/A   Mostly Cloudy
9:53 PM 64.0 °F 48.0 °F 56% 29.75 in 10.0 mi NW 5.8 mph - N/A   Clear
10:53 PM 64.0 °F 46.9 °F 54% 29.77 in 10.0 mi West 6.9 mph - N/A   Overcast
11:53 PM 63.0 °F 42.1 °F 46% 29.79 in 10.0 mi NW 9.2 mph - N/A   Overcast